SL-16 DEB

Satellite information

Favourite Embed

Satellite Type and Status

DEBRISIN ORBIT

Key statistics

Satellite SL-16 DEB at a glance.

Uptime

12043

Days in orbit

Revolutions

≈ 14.0

Per day

Orbit

LEO

Low Earth Orbit

Inclination

71.2

Latest

Satellite identification and parameters

Extended collection of information and parameters for SL-16 DEB.

Object identification

Identified? True

Debris? True

Object name: SL-16 DEB

International designator: 1992-093EJ

Object number (NORAD): 22441

Object ID (CCSDS): 22441

Country: COMMONWEALTH OF INDEPENDENT STATES (CIS)

Current information (Y/N): Y

RCS size: MEDIUM

Orbital parameters

Period: 102.51 minutes

Inclination: 71.1962 deg

SMA: 7255.564 km

Apoapsis: 939.303 km

Periapsis: 815.554 km

RAAN: 286.2743 deg

Eccentricy: 0.0085279

Argument of periapsis: 207.7089 deg

Mean anomaly: 302.9005 deg

Mean motion: 14.04740274 rev/day

Mean motion (dot): 0.0000108 rev/day2

B* drag term: 0.00067930389 1/REarth

Two-line elements (TLE)

Creation date: Dec. 14, 2025, 6:24 p.m.

Reference frame: TEME

Reference center: EARTH

Epoch: Dec. 14, 2025, 6:12 a.m. UTC

TLE line 0: 0 SL-16 DEB

TLE line 1: 1 22441U 92093EJ 25348.25834367 .00001080 00000-0 67930-3 0 9993

TLE line 2: 2 22441 71.1962 286.2743 0085279 207.7089 302.9005 14.04740274684186

Live tracking on map

Real-time ground track for satellite SL-16 DEB.

In-orbit conjunctions

A list of the most updated potential collisions computed for object SL-16 DEB.

Target Orbit TCA Probability of collision Miss distance Type
COSMOS 1459 LEO 2025-10-30 04:09:08 0.0001829721 506.0 (m) PAYLOAD
THOR ABLESTAR DEB LEO 2025-07-05 22:00:35 0.001782954 28.0 (m) DEBRIS

Associated space launch

Second generation ELING satellite

SL-16 DEB was lifted into orbit during the mission ‘Zenit-2 | Tselina-2 12’, on board a Zenit-2 space rocket.

The launch took place on Dec. 25, 1992, 5:56 a.m. from 45/1.

For more information about the launch, click the button.

Launch to space Zenit-2 | Tselina-2 12
Zenit-2 | Tselina-2 12

Agency: N/A

Status: Launch Successful

Launch date: Dec. 25, 1992, 5:56 a.m. UTC

Rocket: Zenit-2

Launch pad: 45/1

Location: Baikonur Cosmodrome, Republic of Kazakhstan

...

Latest news about this satellite

There are no fresh news available about this satellite. Check back as we update our databases every day.


Newsletter sign-up

Weekly statistics, charts and insights to help you stay on top of the space industry.